Квайса

Южная Осетия     42°31′16″N   43°38′49″E
темп.,
°C
ветер,
м/с
пор.,
м/с
влажн.,
%
обл.,
%
осадки,
мм/ч
давл.,
гПа
погр.,
м
15 апреля, чт
чт1501:00−5ссв32814 0.0 102423
04:00−5ссв32824 0.0 102422
07:00−2ссв227294 0.0 102229
10:00+2юз116978 0.0 1020492
13:00+5юз246689 0.1 10181264
16:00+6з246397 0.1 10171279
19:00+3зсз1176100 0.0 101811
22:000ссв227491 0.0 102115
16 апреля, пт
пт1601:00−1ссв327499 0.0 102117
04:00−1св327335 0.0 102119
07:000св3270100 0.0 102128
10:00+5вюв226696 0.0 1019774
13:00+7ююв226865 0.4 10181026
16:00+7зюз246895 2.1 1018852
19:00+5з017832 0.9 102017
22:000св228366 1.0 102316
17 апреля, сб
сб1701:000св328275 0.0 102325
04:00+1ссв2278100 0.0 102218
07:00+2св238795 0.3 102271
10:00+3ссв119399 1.3 1022206
13:00+5юз228693 0.3 1020430
16:00+5зсз239599 1.6 1020210
19:00+5ссз1293100 0.6 102173
22:00+4сз1295100 1.5 102285
18 апреля, вс
вс1801:00+3с119585 0.1 102120
04:00+4с0192100 0.1 102021
07:00+4з0196100 1.4 102043
10:00+4з1197100 5.6 102076
13:00+6зюз2391100 0.9 1019296
16:00+6зюз2298100 1.8 1018211
19:00+5зсз2310099 5.3 1019291
22:00+4ссз229392 5.3 102150
19 апреля, пн
пн1901:00+4с3391100 0.0 102149
04:00+3с328995 0.0 102122
07:00+3ссв228487 0.0 102119
10:00+8ю117666 0.0 1020621
13:00+11ю2365100 0.3 10201311
16:00+10ююв127449 0.8 1020454
19:00+9вюв128325 0.5 102031
22:00+5всв338881 0.5 102133